Theta_e
306 307 307 308 308 308 308 308 308 308 308 309 309 309 309 309 310 310 313 318 319 316 325 328 327 328 329 331 331 332 328 330 330 330 329 328 326 328 329 329 329 327 325 326 326
304 304 305 305 307 308 308 308 308 308 308 308 308 309 309 309 309 310 314 317 320 318 317 325 328 328 330 332 332 330 327 330 329 329 328 327 326 327 328 327 329 325 325 326 326
309 307 305 304 304 305 306 307 308 308 308 308 308 308 308 308 308 313 319 321 320 319 317 319 325 331 331 331 331 329 328 328 328 330 330 327 325 326 327 327 327 325 325 325 325
309 309 309 309 308 305 304 304 304 305 306 307 308 308 308 308 311 320 318 317 320 319 319 319 323 328 330 330 331 329 328 329 329 329 330 327 328 326 327 327 326 325 325 325 324
307 308 308 308 308 308 309 308 305 304 304 305 307 307 307 309 309 314 318 314 316 318 318 318 320 322 324 329 330 330 328 329 330 330 329 329 327 326 327 327 326 324 324 324 325
302 303 305 306 306 306 307 308 309 309 306 304 304 304 303 310 311 311 312 313 314 318 317 318 320 320 323 327 329 330 329 329 330 330 329 328 327 326 327 327 326 326 324 323 323
297 305 305 304 305 305 306 306 306 309 310 308 305 303 302 306 311 313 313 313 314 317 318 318 318 320 322 321 324 326 326 327 328 328 326 328 326 325 328 327 326 326 325 323 324
299 296 300 304 304 303 304 306 305 306 307 310 309 305 306 307 310 311 313 315 315 318 321 323 320 319 320 322 322 323 324 327 326 326 327 326 326 325 328 327 326 327 326 325 325
303 302 299 298 301 302 303 301 302 305 305 306 308 307 307 309 310 313 311 312 315 315 318 322 324 321 322 321 321 322 324 325 326 327 327 326 327 326 327 327 327 327 326 326 326
304 304 304 301 298 300 301 299 301 305 306 307 309 310 310 313 313 314 313 311 314 316 316 316 318 317 317 321 323 322 324 326 327 327 326 327 326 327 328 327 327 327 328 328 325
304 303 304 304 301 300 301 301 311 314 310 312 312 310 315 316 317 318 316 315 314 315 316 319 318 320 318 319 323 323 325 326 327 327 326 329 329 330 329 329 328 329 328 328 325
302 303 302 303 303 299 302 302 307 310 311 314 313 313 314 315 315 316 317 317 315 315 315 315 315 317 322 321 324 323 323 324 326 327 329 329 329 329 328 327 328 328 328 328 328
302 302 303 303 303 307 309 311 313 310 311 313 313 314 315 315 315 315 317 317 316 315 315 315 316 317 322 322 324 325 324 324 326 327 328 328 329 329 329 328 329 328 328 328 327
302 303 304 303 303 308 310 311 311 312 312 310 312 313 314 316 318 317 316 317 317 317 316 315 316 319 322 323 324 324 325 325 327 327 327 328 327 328 327 326 326 327 326 328 326
302 303 304 303 303 302 309 310 311 312 312 313 313 315 314 317 320 319 317 318 317 317 317 316 316 317 320 322 323 325 326 326 327 327 327 327 325 325 327 327 326 325 327 328 327
302 302 304 304 304 305 308 309 311 312 312 313 317 316 315 317 319 321 319 318 317 318 318 317 318 318 318 320 323 325 325 325 326 327 329 327 327 326 327 328 327 327 330 329 328
302 303 303 304 304 304 306 309 312 313 310 313 318 316 316 317 319 321 319 318 318 317 319 319 318 319 319 318 319 324 323 326 327 328 327 327 326 324 326 326 325 326 330 329 329
302 303 303 304 304 304 305 310 311 309 309 311 311 313 315 318 317 319 320 318 318 317 318 319 318 318 319 318 319 319 324 325 328 329 327 326 329 328 327 326 326 331 330 330 329
302 303 304 303 304 305 304 310 308 308 308 310 309 311 314 316 317 318 318 319 318 317 318 319 319 320 319 320 320 322 325 324 327 328 327 327 330 328 326 324 325 331 330 329 329
303 303 304 304 305 305 304 307 306 307 308 309 308 309 311 312 316 317 318 319 319 318 318 319 320 321 320 320 320 321 324 327 325 327 328 327 329 331 326 324 325 329 331 330 328
304 303 305 304 305 304 306 308 307 306 307 307 307 308 310 311 313 315 319 320 320 320 318 319 322 323 321 320 319 321 323 326 324 323 326 327 326 326 325 324 330 329 331 330 328
303 304 306 306 305 304 306 306 307 307 306 307 307 307 308 310 313 315 318 320 320 320 319 319 321 322 324 322 321 322 323 325 327 329 324 324 327 326 326 329 330 331 331 329 328
304 303 306 306 308 306 305 306 307 307 307 308 309 310 308 310 314 315 317 317 318 319 320 320 320 323 325 323 322 321 326 325 326 325 327 327 326 328 326 325 331 330 329 328 327
303 303 306 306 306 306 306 306 305 305 306 307 307 308 308 308 309 313 315 317 316 319 323 323 319 320 325 325 324 322 327 326 326 325 326 328 328 328 326 325 326 330 329 328 327
303 305 305 305 305 305 304 305 306 305 305 305 307 308 309 308 310 311 314 315 316 319 314 321 320 322 322 324 326 325 328 327 326 327 327 326 328 327 326 324 325 330 329 328 328
302 304 303 304 305 305 305 306 306 306 307 308 308 308 310 311 310 312 313 314 314 313 312 315 322 321 322 324 324 325 327 327 327 326 327 326 325 326 328 326 326 330 329 328 328
302 302 302 304 304 305 306 307 307 307 307 308 308 308 309 311 310 310 310 310 311 311 312 316 326 322 321 322 323 324 327 327 327 326 325 325 325 327 328 327 327 330 330 329 328
Wind_Speed
23 24 22 24 23 22 22 22 23 23 22 22 22 20 19 22 21 22 30 27 20 20 12 15 19 19 17 24 21 23 6 12 17 16 13 19 6 12 17 3 11 13 12 15 27
24 25 25 25 25 25 24 23 23 24 24 23 23 21 19 22 25 32 30 24 21 17 26 20 20 20 22 22 23 15 6 19 16 17 14 16 13 14 13 18 8 17 16 17 19
22 23 25 26 27 28 28 27 26 25 25 25 24 22 19 18 24 20 9 11 19 23 24 23 21 22 27 30 30 23 16 16 21 27 30 12 15 21 16 5 4 20 19 20 18
21 21 23 23 24 26 28 28 27 26 26 25 24 23 20 13 7 10 9 2 8 25 26 24 28 28 22 17 33 18 29 28 30 31 27 6 20 21 18 6 5 6 10 17 18
23 24 23 24 24 23 26 27 28 26 25 25 25 23 21 14 30 20 13 17 9 15 33 36 28 30 20 26 26 21 20 32 33 30 18 17 18 21 15 8 4 3 6 12 14
20 21 22 24 26 27 25 26 28 28 25 24 24 22 20 17 39 33 31 28 25 16 21 31 26 38 23 22 22 28 26 26 30 26 16 17 20 17 17 14 11 11 13 15 17
19 18 20 21 23 26 26 26 26 28 26 24 23 21 25 43 24 14 16 26 24 28 24 28 32 25 19 10 24 28 21 22 22 20 14 25 10 8 18 16 19 18 18 18 19
20 20 20 20 22 23 26 28 26 26 23 24 23 19 19 27 31 38 31 25 27 26 25 18 22 32 30 18 22 18 19 19 10 11 24 16 14 11 15 14 20 25 20 24 25
21 21 22 22 21 22 25 28 24 20 20 20 18 16 17 15 27 36 36 41 29 25 29 25 25 26 17 13 12 10 13 16 14 18 21 12 18 14 21 18 26 19 24 28 23
23 23 22 22 24 24 26 26 16 13 18 14 14 7 22 22 21 20 25 33 30 21 31 31 27 13 12 9 16 12 10 11 17 21 19 16 11 7 23 25 26 29 25 25 22
24 22 22 23 22 23 28 20 2 4 18 18 20 27 10 6 11 17 18 22 31 25 14 28 9 17 25 21 14 16 15 19 22 22 19 8 6 8 9 19 12 18 21 16 26
26 26 24 23 22 23 22 16 13 7 14 27 38 39 36 30 19 25 21 25 22 20 16 14 24 22 20 17 18 18 20 23 22 17 8 18 22 8 9 12 18 25 27 15 22
25 24 23 23 23 13 15 21 23 12 9 19 34 42 36 36 40 35 25 35 18 20 23 26 20 20 20 21 19 19 21 21 18 21 14 5 5 6 8 9 19 27 25 18 33
24 22 21 21 16 10 15 14 15 18 5 10 15 21 38 31 26 44 43 29 21 22 22 22 20 18 23 21 18 19 18 21 22 17 6 2 5 3 5 9 9 13 18 33 36
24 22 17 16 19 18 11 15 17 14 5 8 16 17 34 38 14 33 52 35 22 22 21 17 24 25 24 22 24 21 16 17 20 15 5 6 3 5 3 8 8 3 7 26 35
25 22 16 18 17 7 16 21 10 2 11 7 4 16 17 32 20 4 50 44 30 19 23 21 18 20 28 22 23 22 13 17 18 14 11 7 8 7 5 5 1 6 23 33 32
26 20 17 16 20 9 9 11 2 8 10 6 6 8 22 19 26 17 23 26 24 22 23 21 24 22 22 22 24 17 14 10 5 5 6 7 5 8 8 7 8 10 24 29 30
24 18 16 19 15 6 9 2 11 13 23 26 25 28 16 12 21 28 17 25 25 22 10 15 14 29 25 30 18 20 16 10 7 4 5 7 5 8 11 9 20 30 29 31 34
22 17 17 15 11 10 6 8 9 11 17 20 30 20 8 24 18 24 26 27 30 28 17 18 18 17 27 20 25 14 18 14 6 3 4 5 5 7 6 8 10 19 30 32 33
16 14 22 8 12 14 4 12 11 11 19 20 20 15 21 22 16 19 15 28 27 30 21 7 5 21 22 20 19 27 7 8 2 8 6 5 4 6 9 9 9 10 20 28 32
9 8 6 8 12 7 3 6 10 17 20 18 20 19 20 19 19 19 12 13 29 27 30 18 5 7 19 23 24 14 16 7 7 6 6 1 6 8 14 9 14 11 28 31 33
6 2 4 17 4 3 6 7 9 19 25 19 19 15 15 18 18 11 11 11 9 18 30 30 5 11 16 18 25 18 14 8 8 5 4 6 5 7 9 11 15 18 29 31 31
7 8 4 17 3 3 6 15 18 20 18 13 11 19 13 8 8 10 13 25 22 18 20 21 19 4 7 11 13 25 19 9 6 5 8 6 6 5 8 10 22 23 29 33 31
6 3 1 6 8 7 8 10 13 17 17 13 13 17 14 14 13 15 24 13 34 19 25 20 15 24 13 9 10 26 16 16 9 5 7 10 4 6 8 9 10 24 34 36 35
4 3 6 2 4 6 7 10 16 17 18 22 8 15 15 11 16 19 21 25 20 12 19 5 24 18 25 20 11 22 21 21 17 9 14 9 9 12 12 11 14 35 36 34 35
5 4 8 12 12 9 6 11 16 15 12 10 12 13 16 14 12 22 18 14 10 12 18 10 13 23 18 20 23 15 28 22 19 14 7 13 13 8 15 22 18 30 33 33 35
9 11 8 8 6 5 4 10 14 16 12 14 14 16 10 10 8 11 18 22 21 19 17 8 6 12 21 20 13 14 17 23 20 13 14 11 7 4 5 13 15 26 36 36 37
Wind_Direction
285 288 288 288 289 290 290 289 289 290 291 292 291 292 294 293 287 278 265 258 252 239 235 218 230 228 222 243 242 246 254 262 269 277 284 330 11 305 334 228 281 204 167 169 174
285 284 286 285 286 286 283 283 284 285 286 286 286 291 294 296 297 281 282 274 244 218 233 222 224 219 228 240 233 234 232 249 260 273 292 305 329 332 329 304 281 121 142 168 184
292 287 284 282 282 284 284 281 280 280 283 283 285 288 290 298 308 287 282 273 239 213 229 240 232 219 229 237 242 241 241 252 261 264 275 292 315 300 293 289 15 163 176 187 185
298 296 292 286 279 277 278 280 279 276 275 278 280 282 282 279 250 206 191 124 231 217 225 234 235 237 232 234 238 244 245 249 255 262 252 280 296 285 278 260 41 142 184 194 192
297 294 293 293 287 277 273 273 275 275 275 276 275 277 277 249 240 237 244 298 292 226 220 229 236 245 243 237 238 241 247 256 263 271 252 280 266 267 266 284 270 147 180 198 212
310 304 302 291 291 287 276 271 270 272 272 272 271 269 268 244 258 260 254 258 263 245 230 222 226 231 261 249 249 252 255 259 261 272 259 257 261 271 253 253 231 230 217 214 218
310 315 311 298 290 290 287 276 269 266 266 268 269 270 258 246 247 231 218 236 237 247 241 233 227 242 243 287 274 269 273 275 270 268 264 258 252 258 257 242 254 242 221 222 212
330 318 311 315 305 295 290 287 275 267 262 261 264 266 256 261 266 251 233 228 221 224 240 245 241 237 250 259 279 282 276 260 259 269 266 245 252 237 254 243 253 243 212 219 229
332 331 323 317 313 311 299 286 280 277 257 255 261 250 274 278 240 254 239 234 221 221 230 234 235 227 249 237 264 261 256 257 263 254 263 243 254 214 228 242 263 232 230 241 234
328 325 326 322 312 313 313 295 284 259 251 250 244 265 257 241 244 258 233 222 221 223 222 223 233 229 241 233 227 236 259 250 256 254 259 259 242 203 213 225 242 256 243 243 208
329 326 324 323 320 314 318 335 194 223 219 201 198 207 236 275 266 241 229 209 210 236 221 208 204 216 218 228 231 237 245 248 251 247 252 321 285 216 225 257 240 268 280 255 203
316 318 322 321 323 314 312 293 247 332 288 251 244 240 251 264 280 269 213 190 197 219 213 226 228 223 226 220 234 226 248 260 272 276 126 229 250 236 223 237 250 255 258 253 170
317 309 311 313 320 336 329 314 328 326 268 261 239 238 237 240 249 252 237 203 194 208 214 219 223 222 228 220 231 232 230 250 260 276 284 244 233 237 253 264 288 256 247 179 170
319 313 306 304 312 299 301 297 352 276 279 264 221 247 222 224 255 233 236 220 212 207 210 233 225 221 218 230 226 240 228 240 254 265 256 266 270 289 291 294 298 266 178 165 165
316 314 304 293 290 292 273 338 343 157 273 217 214 211 203 189 143 211 218 224 216 205 201 210 207 210 226 213 223 239 225 233 242 253 252 290 324 259 259 290 285 150 254 171 168
316 303 294 282 277 311 348 323 334 227 245 264 136 175 161 203 220 12 193 216 220 226 221 221 227 209 222 231 221 230 229 233 243 246 246 226 212 256 234 232 141 129 133 153 161
319 303 274 264 259 251 296 330 260 227 286 242 237 183 186 190 213 237 184 204 208 202 218 218 223 225 223 220 232 220 220 236 260 222 203 217 271 239 259 202 166 139 139 150 161
319 305 285 264 264 249 301 256 226 239 248 293 320 318 294 183 205 212 209 207 213 210 173 208 220 214 213 220 211 225 208 213 214 178 226 245 230 254 222 155 127 133 146 153 155
318 309 284 269 243 210 228 229 226 244 280 305 334 322 350 346 343 196 218 207 209 208 207 193 225 190 213 215 214 222 211 202 207 205 198 214 250 339 113 127 121 120 137 148 158
320 310 298 247 198 201 199 239 254 270 294 310 315 311 319 328 330 353 219 216 212 210 218 250 195 230 210 214 234 215 184 191 179 195 246 281 283 224 157 163 140 127 141 151 158
337 317 354 197 189 189 230 259 271 274 295 313 312 315 311 315 306 318 262 249 207 200 207 225 218 241 211 204 214 218 218 184 149 153 176 220 277 232 176 164 149 147 149 156 163
329 296 9 163 148 195 243 261 294 297 292 292 287 281 278 294 302 303 275 316 234 199 201 210 198 235 233 207 207 215 207 169 185 213 176 171 255 159 153 146 144 150 155 162 165
303 284 355 185 215 216 255 274 279 275 292 299 286 303 271 292 299 291 306 328 334 349 211 193 224 294 253 264 209 206 195 175 132 132 189 182 244 234 133 133 148 152 158 164 167
305 309 6 213 269 262 296 286 286 287 289 278 291 300 277 262 274 286 302 312 330 331 327 194 196 214 222 211 193 197 183 187 161 159 173 217 206 167 149 140 145 155 163 170 173
277 271 328 295 296 292 302 286 288 293 271 275 278 292 277 249 276 278 289 318 326 342 349 295 203 201 225 247 246 196 188 188 202 173 187 195 169 179 173 174 174 163 167 169 175
289 332 336 299 305 307 304 291 288 290 311 297 288 253 271 253 247 280 305 318 301 323 346 327 225 202 222 223 241 258 190 188 198 194 183 178 234 176 192 186 171 160 166 173 177
300 307 327 292 292 300 278 302 305 310 291 285 295 312 284 247 257 293 289 275 269 284 302 286 331 189 215 222 238 239 218 193 202 196 184 196 181 206 189 185 178 167 170 175 179